Location: ??????
(30.5519°N, 47.7720°E)
Time: 17:45:17
(UTC+00:00)

Cosmos 44 - Pass Details

Date: 24 January 2021
Orbit: 572 x 790 km, 65.1° (Epoch: 01 March)

Event Time Altitude Azimuth Distance (km) Brightness Sun altitude
Rises 14:58:54 0° 223° (SW) 2,898 7.7 -9.1°
Reaches altitude 10° 15:01:13 10° 231° (SW) 2,027 6.9 -9.6°
Maximum altitude 15:05:33 41° 301° (WNW) 970 4.4 -10.5°
Drops below altitude 10° 15:10:13 10° 12° (NNE) 2,172 5.6 -11.4°
Sets 15:12:47 0° 20° (NNE) 3,132 6.3 -12.0°
